Port Orchard, Washington, United States (98366)
Lat: 47.54N, Lon: 122.64W
Wx Zone: WAZ508
Local Info
Past Weather Observations for Friday, April 18, 2014

NOTE: This archive is for the closest National Weather Service station to Port Orchard. Information may differ from the station used for current weather conditions.

Time Weather Temperature Dewpoint Humidity Pressure Winds Precip Visibility
23:55
Clear
37°F / 3°C 37°F / 3°C 100% 29.92 in
(1013 mb)
Calm - 10SM
23:35
Clear
37°F / 3°C 36°F / 2°C 93% 29.92 in
(1013 mb)
Calm - 10SM
23:15
Clear
37°F / 3°C 37°F / 3°C 100% 29.95 in
(1014 mb)
Calm - 10SM
22:55
Clear
39°F / 4°C 37°F / 3°C 93% 29.95 in
(1014 mb)
Calm - 10SM
22:35
Clear
37°F / 3°C 37°F / 3°C 100% 29.95 in
(1014 mb)
Calm - 10SM
22:15
Clear
39°F / 4°C 39°F / 4°C 100% 29.98 in
(1015 mb)
Calm - 10SM
21:55
Clear
43°F / 6°C 39°F / 4°C 87% 29.98 in
(1015 mb)
Calm - 10SM
21:35
Clear
45°F / 7°C 39°F / 4°C 81% 30.01 in
(1016 mb)
Calm - 10SM
21:15
Clear
45°F / 7°C 41°F / 5°C 87% 30.01 in
(1016 mb)
Calm - 10SM
20:55
Clear
45°F / 7°C 41°F / 5°C 87% 30.01 in
(1016 mb)
Calm - 10SM
20:35
Clear
45°F / 7°C 41°F / 5°C 87% 30.01 in
(1016 mb)
Calm - 10SM
20:15
Clear
46°F / 8°C 43°F / 6°C 87% 30.01 in
(1016 mb)
Calm - 10SM
19:55
Clear
48°F / 9°C 39°F / 4°C 71% 30.01 in
(1016 mb)
NE 3.5 mph
(NE 6 kph)
- 10SM
19:35
Clear
48°F / 9°C 39°F / 4°C 71% 30.04 in
(1017 mb)
NE 6.9 mph
(NE 11 kph)
- 10SM
19:15
Clear
48°F / 9°C 41°F / 5°C 76% 30.04 in
(1017 mb)
NE 4.6 mph
(NE 7 kph)
- 10SM
18:55
Clear
48°F / 9°C 43°F / 6°C 82% 30.04 in
(1017 mb)
NE 4.6 mph
(NE 7 kph)
- 10SM
18:35
Partly Cloudy
52°F / 11°C 43°F / 6°C 72% 30.04 in
(1017 mb)
NE 5.8 mph
(NE 9 kph)
- 10SM
18:15
Mostly Cloudy
52°F / 11°C 43°F / 6°C 72% 30.04 in
(1017 mb)
NNE 3.5 mph
(NNE 6 kph)
- 10SM
17:55
Mostly Cloudy
54°F / 12°C 41°F / 5°C 63% 30.06 in
(1018 mb)
NE 3.5 mph
(NE 6 kph)
- 10SM
17:35
Overcast
54°F / 12°C 39°F / 4°C 58% 30.06 in
(1018 mb)
E 3.5 mph
(E 6 kph)
- 10SM
17:15
Mostly Cloudy
55°F / 13°C 39°F / 4°C 55% 30.06 in
(1018 mb)
Calm - 10SM
16:55
Mostly Cloudy
55°F / 13°C 39°F / 4°C 55% 30.06 in
(1018 mb)
E 6.9 mph
(E 11 kph)
- 10SM
16:35
Mostly Cloudy
55°F / 13°C 39°F / 4°C 55% 30.06 in
(1018 mb)
ENE 3.5 mph
(ENE 6 kph)
- 10SM
16:15
Mostly Cloudy
55°F / 13°C 39°F / 4°C 55% 30.09 in
(1019 mb)
ENE 5.8 mph
(ENE 9 kph)
- 10SM
15:55
Mostly Cloudy
55°F / 13°C 39°F / 4°C 55% 30.09 in
(1019 mb)
E 3.5 mph
(E 6 kph)
- 10SM
15:35
Overcast
55°F / 13°C 39°F / 4°C 55% 30.09 in
(1019 mb)
ESE 6.9 mph
(ESE 11 kph)
- 10SM
15:15
Mostly Cloudy
55°F / 13°C 39°F / 4°C 55% 30.09 in
(1019 mb)
SE 5.8 mph
(SE 9 kph)
- 10SM
14:55
Partly Cloudy
55°F / 13°C 41°F / 5°C 59% 30.09 in
(1019 mb)
E 5.8 mph
(E 9 kph)
- 10SM
14:35
Partly Cloudy
54°F / 12°C 43°F / 6°C 67% 30.12 in
(1020 mb)
E 4.6 mph
(E 7 kph)
- 10SM
14:15
Mostly Cloudy
54°F / 12°C 41°F / 5°C 63% 30.12 in
(1020 mb)
ENE 3.5 mph
(ENE 6 kph)
- 10SM
13:55
Overcast
54°F / 12°C 41°F / 5°C 63% 30.12 in
(1020 mb)
E 5.8 mph
(E 9 kph)
- 10SM
13:35
Overcast
54°F / 12°C 41°F / 5°C 63% 30.12 in
(1020 mb)
E 5.8 mph
(E 9 kph)
- 10SM
13:15
Partly Cloudy
54°F / 12°C 43°F / 6°C 67% 30.12 in
(1020 mb)
E 4.6 mph
(E 7 kph)
- 10SM
12:55
Partly Cloudy
54°F / 12°C 41°F / 5°C 63% 30.12 in
(1020 mb)
SE 3.5 mph
(SE 6 kph)
- 10SM
12:35
Overcast
54°F / 12°C 41°F / 5°C 63% 30.12 in
(1020 mb)
SSE 4.6 mph
(SSE 7 kph)
- 10SM
12:15
Mostly Cloudy
54°F / 12°C 37°F / 3°C 54% 30.15 in
(1021 mb)
SW 4.6 mph
(SW 7 kph)
- 10SM
11:55
Mostly Cloudy
54°F / 12°C 39°F / 4°C 58% 30.15 in
(1021 mb)
SSE 5.8 mph
(SSE 9 kph)
- 10SM
11:35
Mostly Cloudy
52°F / 11°C 39°F / 4°C 62% 30.15 in
(1021 mb)
S 8.1 mph
(S 13 kph)
- 10SM
11:15
Partly Cloudy
52°F / 11°C 37°F / 3°C 58% 30.15 in
(1021 mb)
SW 5.8 mph
(SW 9 kph)
- 10SM
10:55
Mostly Cloudy
52°F / 11°C 39°F / 4°C 62% 30.15 in
(1021 mb)
SSE 6.9 mph
(SSE 11 kph)
- 10SM
10:35
Partly Cloudy
52°F / 11°C 41°F / 5°C 67% 30.15 in
(1021 mb)
Calm - 10SM
10:15
Partly Cloudy
50°F / 10°C 41°F / 5°C 71% 30.15 in
(1021 mb)
SW 8.1 mph
(SW 13 kph)
- 10SM
09:55
Partly Cloudy
48°F / 9°C 41°F / 5°C 76% 30.15 in
(1021 mb)
Calm - 10SM
09:35
Partly Cloudy
48°F / 9°C 41°F / 5°C 76% 30.15 in
(1021 mb)
SSW 4.6 mph
(SSW 7 kph)
- 10SM
09:15
Partly Cloudy
46°F / 8°C 41°F / 5°C 82% 30.12 in
(1020 mb)
S 4.6 mph
(S 7 kph)
- 10SM
08:55
Mostly Cloudy
46°F / 8°C 43°F / 6°C 87% 30.12 in
(1020 mb)
SSE 5.8 mph
(SSE 9 kph)
- 10SM
08:35
Partly Cloudy
46°F / 8°C 41°F / 5°C 82% 30.12 in
(1020 mb)
SE 4.6 mph
(SE 7 kph)
- 10SM
08:15
Partly Cloudy
45°F / 7°C 41°F / 5°C 87% 30.12 in
(1020 mb)
SSE 4.6 mph
(SSE 7 kph)
- 10SM
07:55
Clear
43°F / 6°C 41°F / 5°C 93% 30.12 in
(1020 mb)
S 4.6 mph
(S 7 kph)
- 10SM
07:35
Clear
45°F / 7°C 41°F / 5°C 87% 30.09 in
(1019 mb)
SE 3.5 mph
(SE 6 kph)
- 10SM
07:15
Clear
41°F / 5°C 41°F / 5°C 100% 30.12 in
(1020 mb)
S 3.5 mph
(S 6 kph)
- 10SM
06:55
Clear
39°F / 4°C 39°F / 4°C 100% 30.09 in
(1019 mb)
Calm - 10SM
06:35
Clear
36°F / 2°C 36°F / 2°C 100% 30.09 in
(1019 mb)
Calm - 10SM
06:15
Clear
34°F / 1°C 34°F / 1°C 100% 30.09 in
(1019 mb)
Calm - 9SM
05:55
Clear
34°F / 1°C 34°F / 1°C 100% 30.09 in
(1019 mb)
Calm - 8SM
05:35
Clear
32°F / 0°C 32°F / 0°C 100% 30.09 in
(1019 mb)
Calm - 10SM
05:15
Clear
30°F / -1°C 30°F / -1°C 100% 30.06 in
(1018 mb)
Calm - 10SM
04:55
Clear
34°F / 1°C 34°F / 1°C 100% 30.06 in
(1018 mb)
Calm - 10SM
04:35
Clear
36°F / 2°C 36°F / 2°C 100% 30.06 in
(1018 mb)
Calm - 10SM
04:15
Clear
34°F / 1°C 34°F / 1°C 100% 30.04 in
(1017 mb)
Calm - 10SM
03:55
Clear
32°F / 0°C 32°F / 0°C 100% 30.04 in
(1017 mb)
Calm - 9SM
03:35
Clear
32°F / 0°C 32°F / 0°C 100% 30.04 in
(1017 mb)
Calm - 8SM
03:15
Clear
34°F / 1°C 32°F / 0°C 93% 30.04 in
(1017 mb)
Calm - 10SM
02:55
Fair
34°F / 1°C 34°F / 1°C 100% 30.01 in
(1016 mb)
Calm -
02:35
Fair
34°F / 1°C 34°F / 1°C 100% 30.01 in
(1016 mb)
Calm -
02:15
Clear
34°F / 1°C 34°F / 1°C 100% 30.01 in
(1016 mb)
Calm - 8SM
01:55
Clear
34°F / 1°C 34°F / 1°C 100% 30.01 in
(1016 mb)
Calm - 10SM
01:35
Fair
36°F / 2°C 36°F / 2°C 100% 29.98 in
(1015 mb)
Calm -
01:15
Fair
36°F / 2°C 34°F / 1°C 93% 29.98 in
(1015 mb)
Calm -
00:55
Clear
36°F / 2°C 36°F / 2°C 100% 29.98 in
(1015 mb)
Calm - 10SM
00:35
Clear
36°F / 2°C 36°F / 2°C 100% 29.98 in
(1015 mb)
Calm - 10SM
00:15
Clear
36°F / 2°C 36°F / 2°C 100% 29.98 in
(1015 mb)
Calm - 10SM
Time Weather Temperature Dewpoint Humidity Pressure Winds Precip Visibility


Weather for websites

WeatherForYou.com, LLC is not responsible for any damages or problems caused by this service. Current weather conditions are obtained from the closest station including government and personal stations which may have varying degrees of accuracy. Weather forecasts are derived from the NOAA NDFD. Like all things, this site belongs to Jesus Christ... He just trusts me to maintain it. If you have any questions or comments email webmaster@weatherforyou.com

Copyright © 2014, WeatherForYou.com LLC. All rights reserved.